Home > Weather > Wittmund > Past weeks

Flag for Germany Past Weather in Wittmund, Lower Saxony, Germany — Yesterday and Last 2 Weeks

Now
57 °F

Passing clouds.


Feels Like: 56 °F
Forecast: 54 / 74 °F
Wind: 6 mph from Southwest

Location: Wittmundhaven

Current Time: Aug 30, 2016 at 9:23:53 AM

Latest Report: Aug 30, 2016 at 8:20 AM


Visibility: N/A

Pressure: 30.27 "Hg

Humidity: 94%

Dew Point: 55 °F

Location of WittmundLocation

Past Weather in Wittmund — Graph

°F

Wittmund Temperature Yesterday

Maximum temperature yesterday: 66 °F (at 4:20 PM)
Minimum temperature yesterday: 55 °F (at 10:20 PM)
Average temperature yesterday: 62 °F

High & Low Weather Summary for the Past Weeks

 TemperatureHumidityPressure
High88 °F (Aug 25, 3:20 PM)100% (Aug 15, 7:20 AM)30.30 "Hg (Aug 15, 7:20 AM)
Low46 °F (Aug 18, 5:20 AM)40% (Aug 25, 4:20 PM)29.77 "Hg (Aug 19, 10:20 PM)
Average64 °F82%30.04 "Hg
* Reported Aug 15 7:20 AM — Aug 30 7:20 AM, Wittmund, Weather by CustomWeather, © 2016

Note: Actual official high and low records may vary slightly from our data, if they occured in-between our weather recording intervals... More about our weather records

Advertising

Wittmund Weather History for the Previous 24 Hours

Scroll right to see more
 ConditionsComfort  
Time TempWeatherWind HumidityBarometerVisibility
7:20 AM
Tue, Aug 30
52 °FFog.6 mph100%30.27 "HgN/A
6:20 AM52 °FFog.3 mph100%30.24 "HgN/A
5:20 AM52 °FFog.5 mph100%30.24 "HgN/A
4:20 AM52 °FPassing clouds.5 mph100%30.24 "HgN/A
3:20 AM52 °FPassing clouds.5 mph100%30.24 "HgN/A
2:20 AM52 °FPassing clouds.3 mph100%30.24 "HgN/A
1:20 AM54 °FPassing clouds.2 mph94%30.24 "HgN/A
12:20 AM54 °FPassing clouds.2 mph94%30.21 "HgN/A
11:20 PM
Mon, Aug 29
55 °FPassing clouds.2 mph94%30.21 "HgN/A
10:20 PM55 °FPassing clouds.3 mph94%30.21 "HgN/A
9:20 PM59 °FPassing clouds.3 mph82%30.18 "HgN/A
8:20 PM59 °FPassing clouds.6 mph77%30.15 "HgN/A
7:20 PM61 °FPassing clouds.8 mph77%30.15 "HgN/A
6:20 PM63 °FScattered clouds.10 mph73%30.15 "HgN/A
5:20 PM66 °FScattered clouds.13 mph64%30.12 "HgN/A
4:20 PM66 °FPartly sunny.10 mph68%30.12 "HgN/A
3:20 PM64 °FPartly sunny.13 mph68%30.09 "HgN/A
2:20 PM63 °FBroken clouds.7 mph88%30.07 "HgN/A
1:20 PM59 °FBroken clouds.8 mph100%30.07 "HgN/A
12:20 PM63 °FPartly sunny.13 mph77%30.04 "HgN/A
11:20 AM64 °FPartly sunny.12 mph73%30.01 "HgN/A
10:20 AM63 °FBroken clouds.8 mph88%30.01 "HgN/A
9:20 AM61 °FBroken clouds.8 mph94%29.98 "HgN/A
Weather by CustomWeather, © 2016

See weather overviewHow to use our weather pages